Home   Weather   Knoxville   Past weeks

Flag for USA Past Weather in Knoxville, Tennessee, USA — Yesterday and Last 2 Weeks

Now
55 °F

Broken clouds.


Feels Like: 54 °F
Forecast: 47 / 57 °F
Wind: 5 mph from Northeast

Location: McGhee Tyson Airport

Current Time: Jan 18, 2017 at 11:20:54 am

Latest Report: Jan 18, 2017 at 10:53 am


Visibility: 10 mi

Pressure: 30.18 "Hg

Humidity: 67%

Dew Point: 44 °F

Location of KnoxvilleLocation

Past Weather in Knoxville — Graph

°F

Knoxville Temperature Yesterday

Maximum temperature yesterday: 65 °F (at 9:53 am)
Minimum temperature yesterday: 52 °F (at 1:53 am)
Average temperature yesterday: 62 °F

High & Low Weather Summary for the Past Weeks

 TemperatureHumidityPressure
High67 °F (Jan 12, 3:53 pm)100% (Jan 16, 9:16 am)30.79 "Hg (Jan 16, 9:16 am)
Low8 °F (Jan 8, 3:53 am)31% (Jan 4, 4:53 pm)29.73 "Hg (Jan 3, 1:53 pm)
Average46 °F74%30.23 "Hg
* Reported Jan 3 9:32 am — Jan 18 9:53 am, Knoxville, Weather by CustomWeather, © 2017

Note: Actual official high and low records may vary slightly from our data, if they occured in-between our weather recording intervals... More about our weather records

Advertising

Knoxville Weather History for the Previous 24 Hours

Scroll right to see more
 ConditionsComfort  
Time TempWeatherWind HumidityBarometerVisibility
9:53 am
Wed, Jan 18
53 °FPassing clouds.6 mph72%30.17 "Hg10 mi
8:53 am51 °FPassing clouds.7 mph77%30.15 "Hg10 mi
7:53 am50 °FScattered clouds.9 mph80%30.14 "Hg10 mi
6:53 am51 °FPassing clouds.9 mph77%30.13 "Hg10 mi
5:53 am54 °FPassing clouds.13 mph77%30.10 "Hg10 mi
4:53 am56 °FMostly cloudy.7 mph90%30.07 "Hg10 mi
3:53 am56 °FOvercast.8 mph93%30.05 "Hg10 mi
3:23 am56 °FLight rain. Fog.6 mph93%30.08 "Hg6 mi
2:53 am57 °FLight rain. Mostly cloudy.8 mph87%30.05 "Hg10 mi
1:53 am58 °FLight rain. Mostly cloudy.12 mph87%30.05 "Hg9 mi
12:53 am60 °FLight rain. Mostly cloudy.13 mph86%30.04 "Hg10 mi
11:53 pm
Tue, Jan 17
64 °FOvercast.20 mph81%30.02 "Hg10 mi
10:53 pm65 °FMostly cloudy.20 mph78%30.02 "Hg10 mi
9:53 pm65 °FMostly cloudy.15 mph78%30.02 "Hg10 mi
8:53 pm64 °FOvercast.14 mph81%30.04 "Hg10 mi
7:53 pm64 °FLight rain. Mostly cloudy.14 mph81%30.05 "Hg10 mi
6:53 pm64 °FLight rain. Overcast.13 mph81%30.06 "Hg10 mi
5:53 pm63 °FLight rain. Overcast.14 mph84%30.03 "Hg10 mi
4:53 pm62 °FLight rain. Fog.13 mph90%30.01 "Hg6 mi
3:53 pm62 °FLight rain. Fog.17 mph90%30.03 "Hg5 mi
2:53 pm65 °FMore clouds than sun.20 mph76%30.02 "Hg10 mi
1:53 pm62 °FMore clouds than sun.13 mph86%30.03 "Hg10 mi
1:18 pm61 °FLight rain. Fog.13 mph87%30.06 "Hg4 mi
12:53 pm62 °FLight rain. Overcast.12 mph80%30.05 "Hg6 mi
11:53 am63 °FLight rain. Overcast.15 mph75%30.08 "Hg8 mi
Weather by CustomWeather, © 2017

See weather overviewHow to use our weather pages